Location: Krasnoyarskiy Pitomnik
(51.1333°N, 71.6167°E)
Time: 06:09:44
(UTC+00:00)

Transit 4A - Pass Details

Date: 19 April 2024
Orbit: 871 x 971 km, 66.8° (Epoch: 28 May)

Event Time Altitude Azimuth Distance (km) Brightness Sun altitude
Rises 16:56:20 0° 320° (NW) 3,472 12.5 -20.7°
Reaches altitude 10° 16:58:51 10° 317° (NW) 2,529 11.3 -21.0°
Maximum altitude 17:04:33 58° 240° (WSW) 1,013 8.0 -21.5°
Enters shadow 17:06:34 38° 181° (S) 1,308 8.3 -21.6°
